Location: Kergonan
(48.2337°N, 4.5518°W)
Time: 19:03:44
(UTC+00:00)

Cosmos 1656 - Pass Details

Date: 18 January 2020
Orbit: 797 x 850 km, 71.1° (Epoch: 21 February)

Event Time Altitude Azimuth Distance (km) Brightness Sun altitude
Exits shadow 04:55:46 48° 142° (SE) 1,038 4.2 -30.5°
Maximum altitude 04:56:36 53° 111° (ESE) 981 4.2 -30.4°
Drops below altitude 10° 05:01:54 10° 35° (NE) 2,397 6.5 -29.5°
Sets 05:04:23 0° 31° (NNE) 3,340 7.2 -29.1°
